Air Resources Laboratory banner image
Air Resources Laboratory web site National Oceanic and Atmospheric Administration (NOAA)

nm roundup


Office: ABQ

ASUS45 KABQ 170301
RWRNM
NEW MEXICO REGIONAL WEATHER ROUNDUP
NATIONAL WEATHER SERVICE ALBUQUERQUE NM
900 PM MDT TUE AUG 16 2022

NOTE: "FAIR" MEANS FEW OR NO CLOUDS BELOW 12,000 FEET AGL WITH NO
       SIGNIFICANT WEATHER OR OBSTRUCTIONS TO VISION.

      THIS PRODUCT IS RELEASED AS TWO VERSIONS.  ONE VERSION NEAR
      THE TOP OF THE HOUR CONTAINING PRELIMINARY DATA FROM ALBUQUERQUE
      AND OTHER STATIONS.  A FINAL VERSION WITH ADDITIONAL DATA IS
      ISSUED ABOUT 10 MINUTES AFTER THE HOUR.

NMZ201-203-204-210>218-170400-
NORTHWEST PLATEAU/NORTHCENTRAL MOUNTAINS

CITY           SKY/WX    TMP DP  RH WIND       PRES   REMARKS
FARMINGTON     FAIR      73  53  49 S13G26    30.13R
LOS ALAMOS     LGT RAIN  60  54  79 SW8       30.35R
SANTA FE       MOCLDY    75  46  35 E6        30.24R
TAOS           LGT RAIN  58  55  90 NE9       30.39R

$$
NMZ202-205>209-241-402-403-170400-
WESTCENTRAL MOUNTAINS/SOUTHWEST MOUNTAINS

CITY           SKY/WX    TMP DP  RH WIND       PRES   REMARKS
GALLUP         FAIR      64  56  75 CALM      30.24F
GRANTS         CLOUDY    67  53  59 N20G25    30.28R
SILVER CITY    FAIR      75  56  51 SE14      30.15R

$$
NMZ407-409-411-412-170400-
SOUTHERN DESERTS

CITY           SKY/WX    TMP DP  RH WIND       PRES   REMARKS
DEMING         FAIR      77  56  48 E10G28    30.06R
LAS CRUCES     FAIR      73  57  58 SE13G20   30.08R
ALAMOGORDO     FAIR      79  50  36 S3        30.05R
T OR C         FAIR      80  55  42 S10       30.10R

$$
NMZ219>223-170400-
CENTRAL VALLEYS/CENTRAL HIGHLANDS

CITY           SKY/WX    TMP DP  RH WIND       PRES   REMARKS
ALBUQUERQUE    FAIR      80  50  34 SE14      30.13R
DOUBLE EAGLE   CLEAR     81  45  28 SE13      30.14S
MORIARTY ARPT  FAIR      71  49  45 SE8       30.24R
CLINES CORNERS FAIR      66  51  58 S10       30.30R
BELEN          FAIR      80  47  31 SE12G17   30.13R
SOCORRO        MOCLDY    81  48  31 S6        30.10R

$$
NMZ224>226-239-240-170400-
SOUTHCENTRAL MOUNTAINS

CITY           SKY/WX    TMP DP  RH WIND       PRES   REMARKS
RUIDOSO          N/A     63  55  77 SE13      30.30R

$$
NMZ227>231-170400-
NORTHEAST HIGHLANDS/NORTHEAST PLAINS

CITY           SKY/WX    TMP DP  RH WIND       PRES   REMARKS
LAS VEGAS      FAIR      64  54  69 NE10      30.29R
RATON          CLOUDY    62  56  80 N13       30.28R
CLAYTON        MOCLDY    65  58  78 N13G24    30.21R

$$
NMZ232>237-170400-
EASTCENTRAL PLAINS

CITY           SKY/WX    TMP DP  RH WIND       PRES   REMARKS
TUCUMCARI      FAIR      83  53  35 S7        30.06R
CANNON AFB     FAIR      76  53  43 S9        30.12R
CLOVIS AIRPORT FAIR      77  52  41 S9        30.12R

$$
NMZ028-029-033-238-170400-
SOUTHEAST PLAINS

CITY           SKY/WX    TMP DP  RH WIND       PRES   REMARKS
ROSWELL        FAIR      78  60  53 S10       30.07R
ARTESIA        FAIR      72  64  78 W6        30.09R
CARLSBAD       FAIR      72  68  87 CALM      30.04R
HOBBS          MOCLDY    75  63  64 CALM      30.07S


$$


ASUS45 KABQ 170310
RWRNM
NEW MEXICO REGIONAL WEATHER ROUNDUP
NATIONAL WEATHER SERVICE ALBUQUERQUE NM
900 PM MDT TUE AUG 16 2022

NOTE: "FAIR" MEANS FEW OR NO CLOUDS BELOW 12,000 FEET AGL WITH NO
       SIGNIFICANT WEATHER OR OBSTRUCTIONS TO VISION.

      THIS PRODUCT IS RELEASED AS TWO VERSIONS.  ONE VERSION NEAR
      THE TOP OF THE HOUR CONTAINING PRELIMINARY DATA FROM ALBUQUERQUE
      AND OTHER STATIONS.  A FINAL VERSION WITH ADDITIONAL DATA IS
      ISSUED ABOUT 10 MINUTES AFTER THE HOUR.

NMZ201-203-204-210>218-170400-
NORTHWEST PLATEAU/NORTHCENTRAL MOUNTAINS

CITY           SKY/WX    TMP DP  RH WIND       PRES   REMARKS
FARMINGTON     FAIR      73  53  49 S13G26    30.13R
LOS ALAMOS     LGT RAIN  60  54  79 SW8       30.35R
SANTA FE       MOCLDY    75  46  35 E6        30.24R
TAOS           LGT RAIN  58  55  90 NE9       30.39R
ANGEL FIRE     MOCLDY    57  53  86 SW3       30.44R

$$
NMZ202-205>209-241-402-403-170400-
WESTCENTRAL MOUNTAINS/SOUTHWEST MOUNTAINS

CITY           SKY/WX    TMP DP  RH WIND       PRES   REMARKS
GALLUP         FAIR      64  56  75 CALM      30.24F
GRANTS         CLOUDY    67  53  59 N20G25    30.28R
SILVER CITY    FAIR      75  56  51 SE14      30.15R

$$
NMZ407-409-411-412-170400-
SOUTHERN DESERTS

CITY           SKY/WX    TMP DP  RH WIND       PRES   REMARKS
DEMING         FAIR      77  56  48 E10G28    30.06R
LAS CRUCES     FAIR      73  57  58 SE13G20   30.08R
HOLLOMAN AFB   CLOUDY    78  56  45 SW15      30.06R
ALAMOGORDO     FAIR      79  50  36 S3        30.05R
T OR C         FAIR      80  55  42 S10       30.10R

$$
NMZ219>223-170400-
CENTRAL VALLEYS/CENTRAL HIGHLANDS

CITY           SKY/WX    TMP DP  RH WIND       PRES   REMARKS
ALBUQUERQUE    FAIR      80  50  34 SE14      30.13R
DOUBLE EAGLE   CLEAR     81  45  28 SE13      30.14S
MORIARTY ARPT  FAIR      71  49  45 SE8       30.24R
CLINES CORNERS FAIR      66  51  58 S10       30.30R
BELEN          FAIR      80  47  31 SE12G17   30.13R
SOCORRO        MOCLDY    81  48  31 S6        30.10R

$$
NMZ224>226-239-240-170400-
SOUTHCENTRAL MOUNTAINS

CITY           SKY/WX    TMP DP  RH WIND       PRES   REMARKS
RUIDOSO          N/A     63  55  77 SE13      30.30R

$$
NMZ227>231-170400-
NORTHEAST HIGHLANDS/NORTHEAST PLAINS

CITY           SKY/WX    TMP DP  RH WIND       PRES   REMARKS
LAS VEGAS      FAIR      64  54  69 NE10      30.29R
RATON          CLOUDY    62  56  80 N13       30.28R
CLAYTON        MOCLDY    65  58  78 N13G24    30.21R

$$
NMZ232>237-170400-
EASTCENTRAL PLAINS

CITY           SKY/WX    TMP DP  RH WIND       PRES   REMARKS
TUCUMCARI      FAIR      83  53  35 S7        30.06R
CANNON AFB     FAIR      76  53  43 S9        30.12R
CLOVIS AIRPORT FAIR      77  52  41 S9        30.12R

$$
NMZ028-029-033-238-170400-
SOUTHEAST PLAINS

CITY           SKY/WX    TMP DP  RH WIND       PRES   REMARKS
ROSWELL        FAIR      78  60  53 S10       30.07R
ARTESIA        FAIR      72  64  78 W6        30.09R
CARLSBAD       FAIR      72  68  87 CALM      30.04R
HOBBS          MOCLDY    75  63  64 CALM      30.07S


$$